Location: Peebles
(55.6412°N, 3.1714°W)
Time: 16:02:40
(UTC+01:00)

Cosmos 1025 Rocket - Pass Details

Date: 26 September 2021
Orbit: 593 x 619 km, 82.5° (Epoch: 17 October)

Event Time Altitude Azimuth Distance (km) Brightness Sun altitude
Rises 20:29:37 0° 348° (NNW) 2,886 6.9 -13.2°
Reaches altitude 10° 20:31:52 10° 349° (N) 1,973 6.0 -13.5°
Maximum altitude 20:36:14 82° 78° (ENE) 618 2.9 -14.1°
Drops below altitude 10° 20:40:32 10° 166° (SSE) 1,941 5.3 -14.7°
Enters shadow 20:41:02 - 166° (SSE) 2,144 5.5 -14.8°
